Powrót do katalogu

SAUDISAT 3

AktywnyKrótkofalarstwoSSO
NORAD 31118·PAYLOAD·🇸🇦 Saudi Arabia

Wystrzelony Apr 17, 2007 z Baikonur Cosmodrome

Loading…

Następne Przeloty (najbliższe 24 godziny)

TLE

ŚwieżeSource: Space-Track

Epoka: Sep 14, 2026, 08:09 UTC

1 31118U 07012B   26257.34008328  .00000199  00000-0  40360-4 0  9990
2 31118  98.1542 207.8351 0013557 307.5395  52.4579 14.71470147 40859

Śledź SAUDISAT 3 w czasie rzeczywistym z AllMySat

Download on the App Store